EW8215 Weather Reports


Display with metric or nautical units.
time (UTC)temp
F
wind
direction
speed
MPH
gust
MPH
rain 1hr
in
rain 24hr
in
rain mn
in
humidity
%
barometer
mb
20260901115038 74 147 0.0 0.0 0.00 0.00 0.00 93 1016.9
20260901114534 75 156 0.0 0.0 0.00 0.00 0.00 93 1016.9
20260901114033 75 156 0.0 0.0 0.00 0.00 0.00 93 1016.6
20260901113532 75 156 0.0 0.0 0.00 0.00 0.00 93 1016.7
20260901113027 75 158 0.0 0.0 0.00 0.00 0.00 93 1016.7
20260901112521 74 158 0.0 0.0 0.00 0.00 0.00 92 1016.8
20260901112017 75 158 0.0 0.0 0.00 0.00 0.00 92 1016.8
20260901111515 75 158 0.0 0.0 0.00 0.00 0.00 91 1016.6
20260901111014 75 158 0.0 0.0 0.00 0.00 0.00 91 1016.7
20260901110510 75 159 0.0 0.0 0.00 0.00 0.00 91 1016.5
20260901110006 75 153 0.0 0.0 0.00 0.00 0.00 91 1016.9
20260901105501 75 153 0.0 0.0 0.00 0.00 0.00 91 1016.7
20260901105001 75 153 0.0 0.0 0.00 0.00 0.00 91 1016.8
20260901104457 75 153 0.0 0.0 0.00 0.00 0.00 91 1016.7
20260901103952 76 153 0.0 0.0 0.00 0.00 0.00 91 1016.5
20260901103447 76 153 0.0 0.0 0.00 0.00 0.00 91 1016.7
20260901102942 76 151 0.0 0.0 0.00 0.00 0.00 91 1016.7
20260901102437 76 149 0.0 0.0 0.00 0.00 0.00 90 1016.6
20260901101931 76 154 0.0 0.0 0.00 0.00 0.00 90 1016.4
20260901101427 76 156 0.0 0.0 0.00 0.00 0.00 89 1016.5
20260901100926 76 156 0.0 0.0 0.00 0.00 0.00 89 1016.6
20260901100420 77 150 0.0 0.0 0.00 0.00 0.00 89 1016.4
20260901095914 77 150 0.0 0.0 0.00 0.00 0.00 88 1016.4
20260901095412 77 151 0.0 0.0 0.00 0.00 0.00 88 1016.3
20260901094906 77 152 0.0 0.0 0.00 0.00 0.00 88 1016.3
20260901094401 77 152 0.0 0.0 0.00 0.00 0.00 88 1016.5
20260901093855 77 151 0.0 0.0 0.00 0.00 0.00 88 1016.4
20260901093354 77 153 0.0 0.0 0.00 0.00 0.00 88 1016.5
20260901092851 78 149 0.0 0.0 0.00 0.00 0.00 87 1016.5
20260901092346 78 154 0.0 0.0 0.00 0.00 0.00 87 1016.4
20260901091842 78 154 0.0 0.0 0.00 0.00 0.00 86 1016.3
20260901091342 78 153 0.0 0.0 0.00 0.00 0.00 86 1016.6
20260901090837 78 157 0.0 0.0 0.00 0.00 0.00 86 1016.5
20260901090336 78 156 0.0 0.0 0.00 0.00 0.00 86 1016.5
20260901085833 78 154 0.0 0.0 0.00 0.00 0.00 86 1016.8
20260901085333 78 153 0.0 0.0 0.00 0.00 0.00 85 1016.4
20260901084829 78 153 0.0 0.0 0.00 0.00 0.00 86 1016.6
20260901084325 78 151 0.0 0.0 0.00 0.00 0.00 85 1016.5
20260901083820 79 147 0.0 0.0 0.00 0.00 0.00 84 1016.7
20260901083315 79 150 0.0 0.0 0.00 0.00 0.00 83 1016.7
20260901082813 79 152 0.0 0.0 0.00 0.00 0.00 83 1016.6
20260901082309 80 154 0.0 0.0 0.00 0.00 0.00 82 1016.5
20260901081803 80 157 0.0 0.0 0.00 0.00 0.00 82 1016.6
20260901081258 80 150 2.0 2.0 0.00 0.00 0.00 81 1016.7
20260901080753 80 152 0.0 0.0 0.00 0.00 0.00 81 1016.5
20260901080252 80 156 1.0 2.0 0.00 0.00 0.00 81 1016.4
20260901075747 80 159 0.0 2.0 0.00 0.00 0.00 81 1016.3
20260901075241 81 159 2.0 2.0 0.00 0.00 0.00 80 1016.7
20260901074736 81 155 0.0 0.0 0.00 0.00 0.00 80 1016.8
20260901074231 81 135 0.0 0.0 0.00 0.00 0.00 80 1016.6
20260901073728 81 159 0.0 0.0 0.00 0.00 0.00 80 1016.4
20260901073223 81 160 0.0 0.0 0.00 0.00 0.00 79 1016.5
20260901072718 81 161 0.0 0.0 0.00 0.00 0.00 78 1016.4
20260901072213 82 166 0.0 0.0 0.00 0.00 0.00 78 1016.4
20260901071712 82 165 0.0 0.0 0.00 0.00 0.00 77 1016.5
20260901071207 82 156 0.0 0.0 0.00 0.00 0.00 77 1016.6
20260901070701 82 163 0.0 0.0 0.00 0.00 0.00 77 1016.6
20260901070156 82 168 2.0 3.0 0.00 0.00 0.00 77 1016.5
20260901065655 82 174 3.0 3.0 0.00 0.00 0.00 77 1016.5
20260901065150 82 160 0.0 2.0 0.00 0.00 0.00 76 1016.8
20260901064647 82 162 1.0 2.0 0.00 0.00 0.00 76 1016.6
20260901064143 82 155 2.0 2.0 0.00 0.00 0.00 76 1016.6
20260901063641 82 172 1.0 2.0 0.00 0.00 0.00 76 1016.5
20260901063136 82 163 0.0 0.0 0.00 0.00 0.00 76 1016.4
20260901062632 82 178 2.0 3.0 0.00 0.00 0.00 75 1016.3
20260901062127 82 163 1.0 2.0 0.00 0.00 0.00 75 1016.4
20260901061623 82 169 4.0 5.0 0.00 0.00 0.00 75 1016.4
20260901061117 83 169 1.0 2.0 0.00 0.00 0.00 74 1016.2
20260901060617 83 158 2.0 3.0 0.00 0.00 0.00 74 1016.1
20260901060113 83 151 1.0 2.0 0.00 0.00 0.00 74 1016.2
20260901055613 83 134 2.0 3.0 0.00 0.00 0.00 73 1016.1
20260901055110 83 159 3.0 3.0 0.00 0.00 0.00 73 1016.0
20260901054607 83 155 2.0 2.0 0.00 0.00 0.00 72 1016.2
20260901054102 83 177 4.0 5.0 0.00 0.00 0.00 72 1016.0
20260901053558 83 170 3.0 3.0 0.00 0.00 0.00 72 1016.1
20260901053054 84 165 2.0 3.0 0.00 0.00 0.00 71 1016.1
20260901052549 84 164 4.0 5.0 0.00 0.00 0.00 71 1016.0
20260901052044 84 157 2.0 3.0 0.00 0.00 0.00 71 1015.9
20260901051539 83 162 8.0 10.0 0.00 0.00 0.00 71 1015.9
20260901051038 83 178 3.0 5.0 0.00 0.00 0.00 71 1015.9
20260901050533 82 160 1.0 2.0 0.00 0.00 0.00 71 1015.8
20260901050028 82 156 1.0 2.0 0.00 0.00 0.00 71 1015.9
20260901045523 81 144 2.0 2.0 0.00 0.00 0.00 71 1015.9
20260901045023 82 137 2.0 3.0 0.00 0.00 0.00 71 1015.8
20260901044519 82 144 2.0 2.0 0.00 0.00 0.00 70 1015.8
20260901044015 82 144 3.0 3.0 0.00 0.00 0.00 69 1015.6
20260901043510 83 117 3.0 3.0 0.00 0.00 0.00 68 1015.8
20260901043006 83 144 2.0 2.0 0.00 0.00 0.00 67 1015.6
20260901042505 83 130 2.0 3.0 0.00 0.00 0.00 66 1015.7
20260901042000 84 143 1.0 2.0 0.00 0.00 0.00 66 1015.6
20260901041455 84 155 1.0 2.0 0.00 0.00 0.00 64 1015.6
20260901040950 84 117 3.0 3.0 0.00 0.00 0.00 64 1015.5
20260901040444 84 157 2.0 3.0 0.00 0.00 0.00 63 1015.3
20260901035943 84 151 2.0 2.0 0.00 0.00 0.00 63 1015.6
20260901035442 85 147 3.0 3.0 0.00 0.00 0.00 62 1015.5
20260901034941 85 167 2.0 3.0 0.00 0.00 0.00 61 1015.7
20260901034441 85 119 4.0 7.0 0.00 0.00 0.00 60 1015.3
20260901033936 85 143 1.0 2.0 0.00 0.00 0.00 60 1015.3
20260901033435 85 134 2.0 2.0 0.00 0.00 0.00 59 1015.4
20260901032934 85 159 0.0 0.0 0.00 0.00 0.00 58 1015.4
20260901032433 85 158 0.0 2.0 0.00 0.00 0.00 58 1015.5
20260901031928 85 128 0.0 0.0 0.00 0.00 0.00 58 1015.3
20260901031424 85 157 0.0 0.0 0.00 0.00 0.00 57 1015.3
20260901030918 84 135 1.0 3.0 0.00 0.00 0.00 58 1015.1
20260901030408 83 149 0.0 0.0 0.00 0.00 0.00 59 1015.0
20260901025907 84 142 0.0 0.0 0.00 0.00 0.00 59 1014.9
20260901025403 84 135 0.0 0.0 0.00 0.00 0.00 58 1014.8
20260901024857 84 136 0.0 0.0 0.00 0.00 0.00 58 1014.7
20260901024356 84 148 0.0 0.0 0.00 0.00 0.00 58 1014.7
20260901023855 84 146 0.0 0.0 0.00 0.00 0.00 57 1014.7
20260901023350 84 148 0.0 0.0 0.00 0.00 0.00 58 1014.5
20260901022845 85 126 0.0 0.0 0.00 0.00 0.00 56 1014.6
20260901022341 84 152 0.0 0.0 0.00 0.00 0.00 57 1014.4
20260901021836 85 132 0.0 0.0 0.00 0.00 0.00 56 1014.4
20260901021331 86 146 0.0 0.0 0.00 0.00 0.00 56 1014.1
20260901020826 86 132 0.0 0.0 0.00 0.00 0.00 54 1014.2
20260901020321 86 148 0.0 0.0 0.00 0.00 0.00 55 1014.3
20260901015816 87 137 0.0 0.0 0.00 0.00 0.00 53 1014.3
20260901015312 87 149 0.0 0.0 0.00 0.00 0.00 53 1014.2
20260901014811 86 159 0.0 0.0 0.00 0.00 0.00 53 1014.2
20260901014307 87 151 0.0 0.0 0.00 0.00 0.00 53 1014.1
20260901013802 87 144 0.0 0.0 0.00 0.00 0.00 52 1014.0
20260901013252 88 142 0.0 0.0 0.00 0.00 0.00 51 1014.0
20260901012748 88 138 0.0 2.0 0.00 0.00 0.00 51 1013.9
20260901012247 88 135 0.0 0.0 0.00 0.00 0.00 51 1014.0
20260901011743 88 145 2.0 2.0 0.00 0.00 0.00 52 1013.8
20260901011238 88 149 2.0 2.0 0.00 0.00 0.00 51 1013.9
20260901010731 89 138 2.0 2.0 0.00 0.00 0.00 50 1013.7
20260901010227 89 143 2.0 3.0 0.00 0.00 0.00 50 1013.7
20260901005725 90 133 3.0 3.0 0.00 0.00 0.00 49 1013.7
20260901005221 90 141 2.0 2.0 0.00 0.00 0.00 48 1013.7
20260901004720 91 137 3.0 3.0 0.00 0.00 0.00 48 1013.8
20260901004215 91 145 0.0 0.0 0.00 0.00 0.00 47 1013.8
20260901003709 92 138 3.0 3.0 0.00 0.00 0.00 46 1013.8
20260901003210 93 135 2.0 3.0 0.00 0.00 0.00 44 1013.7
20260901002708 94 136 0.0 2.0 0.00 0.00 0.00 44 1013.6
20260901002203 94 106 7.0 10.0 0.00 0.00 0.00 42 1013.8
20260901001659 95 151 3.0 3.0 0.00 0.00 0.00 42 1013.7
20260901001154 95 118 1.0 2.0 0.00 0.00 0.00 41 1013.7
20260901000649 95 145 0.0 0.0 0.00 0.00 0.00 41 1013.8
20260901000145 96 114 5.0 7.0 0.00 0.00 0.00 40 1013.6
20260831235638 96 160 0.0 2.0 0.00 0.00 0.00 40 1013.6
20260831235134 96 122 3.0 5.0 0.00 0.00 0.00 39 1013.8
20260831234633 97 156 3.0 5.0 0.00 0.00 0.00 40 1013.6
20260831234128 97 113 3.0 3.0 0.00 0.00 0.00 39 1013.4
20260831233623 98 132 3.0 5.0 0.00 0.00 0.00 39 1013.6
20260831233119 97 126 4.0 5.0 0.00 0.00 0.00 38 1013.7
20260831232614 97 131 6.0 7.0 0.00 0.00 0.00 39 1013.6
20260831232110 98 129 9.0 10.0 0.00 0.00 0.00 38 1013.8
20260831231606 98 142 9.0 12.0 0.00 0.00 0.00 38 1013.8
20260831231101 98 136 5.0 7.0 0.00 0.00 0.00 37 1013.8
20260831230557 99 95 9.0 12.0 0.00 0.00 0.00 37 1013.8
20260831230051 99 117 4.0 7.0 0.00 0.00 0.00 37 1013.6
20260831225547 100 192 10.0 12.0 0.00 0.00 0.00 36 1013.8
20260831225041 100 121 2.0 3.0 0.00 0.00 0.00 36 1013.8
20260831224536 100 159 2.0 3.0 0.00 0.00 0.00 35 1013.8
20260831224032 100 159 7.0 10.0 0.00 0.00 0.00 34 1013.9
20260831223526 100 172 6.0 7.0 0.00 0.00 0.00 35 1014.0
20260831223023 100 155 4.0 7.0 0.00 0.00 0.00 35 1014.0
20260831222519 99 138 4.0 5.0 0.00 0.00 0.00 36 1013.9
20260831222018 100 143 4.0 5.0 0.00 0.00 0.00 36 1013.8
20260831221515 100 155 3.0 3.0 0.00 0.00 0.00 36 1014.0
20260831221009 101 157 6.0 7.0 0.00 0.00 0.00 35 1013.8
20260831220505 100 182 3.0 5.0 0.00 0.00 0.00 36 1013.9
20260831220000 102 118 4.0 9.0 0.00 0.00 0.00 34 1013.9
20260831215455 101 160 4.0 5.0 0.00 0.00 0.00 35 1014.0
20260831214951 100 159 1.0 2.0 0.00 0.00 0.00 34 1014.2
20260831214449 99 101 2.0 3.0 0.00 0.00 0.00 36 1014.1
20260831213945 98 161 1.0 3.0 0.00 0.00 0.00 35 1014.2
20260831213441 97 140 0.0 2.0 0.00 0.00 0.00 38 1014.2
20260831212940 97 147 3.0 3.0 0.00 0.00 0.00 39 1014.2
20260831212437 98 156 5.0 5.0 0.00 0.00 0.00 39 1014.5
20260831211936 100 203 4.0 5.0 0.00 0.00 0.00 36 1014.5
20260831211426 99 156 2.0 3.0 0.00 0.00 0.00 37 1014.6
20260831210920 97 225 6.0 9.0 0.00 0.00 0.00 39 1014.5
20260831210415 98 148 2.0 3.0 0.00 0.00 0.00 39 1014.5
20260831205911 99 222 6.0 9.0 0.00 0.00 0.00 38 1014.8
20260831205407 100 157 7.0 9.0 0.00 0.00 0.00 38 1014.8
20260831204906 98 230 4.0 5.0 0.00 0.00 0.00 38 1014.9
20260831204406 97 123 3.0 5.0 0.00 0.00 0.00 40 1015.0
20260831203905 98 158 2.0 3.0 0.00 0.00 0.00 40 1015.1
20260831203400 99 141 6.0 9.0 0.00 0.00 0.00 39 1015.2
20260831202858 100 175 5.0 7.0 0.00 0.00 0.00 39 1015.3
20260831202354 100 176 6.0 9.0 0.00 0.00 0.00 38 1015.2
20260831201853 96 168 0.0 0.0 0.00 0.00 0.00 40 1015.5
20260831201352 96 172 4.0 7.0 0.00 0.00 0.00 41 1015.6
20260831200848 98 172 6.0 7.0 0.00 0.00 0.00 41 1015.5
20260831200343 100 176 1.0 2.0 0.00 0.00 0.00 38 1015.4
20260831195838 99 125 2.0 5.0 0.00 0.00 0.00 38 1015.7
20260831195334 100 156 11.0 15.0 0.00 0.00 0.00 40 1015.7
20260831194829 100 161 6.0 9.0 0.00 0.00 0.00 38 1015.9
20260831194324 101 158 2.0 5.0 0.00 0.00 0.00 37 1015.6
20260831193823 100 176 2.0 2.0 0.00 0.00 0.00 38 1015.8
20260831193319 100 230 8.0 10.0 0.00 0.00 0.00 38 1015.9
20260831192814 100 179 3.0 5.0 0.00 0.00 0.00 39 1015.9
20260831192309 99 160 0.0 0.0 0.00 0.00 0.00 38 1016.0
20260831191805 99 93 3.0 7.0 0.00 0.00 0.00 38 1016.1
20260831191301 98 107 7.0 9.0 0.00 0.00 0.00 39 1016.1
20260831190756 100 143 7.0 9.0 0.00 0.00 0.00 39 1016.3
20260831190256 99 124 4.0 7.0 0.00 0.00 0.00 40 1016.3
20260831185750 99 164 4.0 5.0 0.00 0.00 0.00 41 1016.5
20260831185246 98 161 1.0 3.0 0.00 0.00 0.00 42 1016.4
20260831184745 100 134 4.0 7.0 0.00 0.00 0.00 41 1016.5
20260831184241 99 171 7.0 9.0 0.00 0.00 0.00 43 1016.5
20260831183741 99 150 4.0 10.0 0.00 0.00 0.00 42 1016.8
20260831183235 98 123 6.0 7.0 0.00 0.00 0.00 44 1016.8
20260831182734 98 188 5.0 7.0 0.00 0.00 0.00 43 1016.8
20260831182230 98 113 7.0 9.0 0.00 0.00 0.00 43 1016.7
20260831181730 97 201 6.0 9.0 0.00 0.00 0.00 45 1016.8
20260831181225 98 173 4.0 5.0 0.00 0.00 0.00 47 1016.8
20260831180720 97 126 2.0 3.0 0.00 0.00 0.00 46 1016.8
20260831180215 96 90 3.0 5.0 0.00 0.00 0.00 46 1017.2
20260831175714 95 134 3.0 5.0 0.00 0.00 0.00 47 1017.3
20260831175211 96 158 7.0 12.0 0.00 0.00 0.00 48 1017.1
20260831174711 96 119 4.0 7.0 0.00 0.00 0.00 46 1017.2
20260831174207 96 147 5.0 5.0 0.00 0.00 0.00 46 1017.3
20260831173705 96 145 5.0 7.0 0.00 0.00 0.00 44 1017.4
20260831173201 96 111 5.0 7.0 0.00 0.00 0.00 47 1017.4
20260831172700 96 136 3.0 3.0 0.00 0.00 0.00 49 1017.4
20260831172156 97 163 5.0 7.0 0.00 0.00 0.00 50 1017.7
20260831171650 96 195 2.0 3.0 0.00 0.00 0.00 50 1017.9
20260831171148 94 157 3.0 5.0 0.00 0.00 0.00 52 1017.7
20260831170644 95 163 2.0 3.0 0.00 0.00 0.00 51 1017.9
20260831170141 94 184 3.0 7.0 0.00 0.00 0.00 53 1018.1
20260831165636 93 127 4.0 5.0 0.00 0.00 0.00 54 1017.9
20260831165133 93 137 7.0 9.0 0.00 0.00 0.00 55 1018.0
20260831164629 93 137 7.0 7.0 0.00 0.00 0.00 56 1018.1
20260831164124 94 121 4.0 7.0 0.00 0.00 0.00 53 1017.9
20260831163619 93 157 7.0 10.0 0.00 0.00 0.00 56 1018.1
20260831163115 93 159 2.0 3.0 0.00 0.00 0.00 57 1018.1
20260831162614 91 166 1.0 3.0 0.00 0.00 0.00 60 1017.9
20260831162111 92 168 4.0 5.0 0.00 0.00 0.00 60 1018.1
20260831161602 92 215 5.0 7.0 0.00 0.00 0.00 58 1018.1
20260831161058 91 173 2.0 3.0 0.00 0.00 0.00 61 1018.1
20260831160557 90 204 5.0 5.0 0.00 0.00 0.00 62 1018.0
20260831160053 89 234 3.0 5.0 0.00 0.00 0.00 63 1018.2
20260831155553 89 157 2.0 3.0 0.00 0.00 0.00 67 1017.8
20260831155048 89 152 0.0 0.0 0.00 0.00 0.00 67 1018.0
20260831154544 90 171 4.0 5.0 0.00 0.00 0.00 64 1018.0
20260831154038 90 223 1.0 2.0 0.00 0.00 0.00 64 1017.9
20260831153532 89 188 3.0 3.0 0.00 0.00 0.00 66 1017.9
20260831153029 88 140 4.0 5.0 0.00 0.00 0.00 68 1018.0
20260831152524 89 81 2.0 3.0 0.00 0.00 0.00 69 1017.9
20260831152019 86 188 6.0 9.0 0.00 0.00 0.00 71 1017.9
20260831151513 86 190 4.0 7.0 0.00 0.00 0.00 72 1017.8
20260831151008 87 203 6.0 9.0 0.00 0.00 0.00 72 1017.7
20260831150503 87 184 3.0 3.0 0.00 0.00 0.00 73 1017.8
20260831150003 87 199 4.0 5.0 0.00 0.00 0.00 73 1017.7
20260831145459 87 222 6.0 10.0 0.00 0.00 0.00 72 1017.8
20260831144954 87 168 4.0 5.0 0.00 0.00 0.00 75 1017.7
20260831144444 86 232 4.0 7.0 0.00 0.00 0.00 77 1017.7
20260831143939 86 221 1.0 3.0 0.00 0.00 0.00 77 1017.7
20260831143434 85 234 2.0 3.0 0.00 0.00 0.00 79 1017.5
20260831142930 85 232 5.0 5.0 0.00 0.00 0.00 80 1017.6
20260831142427 84 201 4.0 7.0 0.00 0.00 0.00 81 1017.7
20260831141925 84 194 4.0 5.0 0.00 0.00 0.00 82 1017.6
20260831141419 83 159 0.0 2.0 0.00 0.00 0.00 83 1017.8
20260831140914 83 172 2.0 5.0 0.00 0.00 0.00 83 1017.6
20260831140409 83 154 2.0 3.0 0.00 0.00 0.00 83 1017.6
20260831135908 82 203 0.0 0.0 0.00 0.00 0.00 84 1017.6
20260831135403 82 167 2.0 2.0 0.00 0.00 0.00 84 1017.5
20260831134858 82 173 2.0 2.0 0.00 0.00 0.00 85 1017.3
20260831134354 82 188 0.0 0.0 0.00 0.00 0.00 85 1017.5
20260831133853 82 163 1.0 3.0 0.00 0.00 0.00 85 1017.2
20260831133353 81 154 0.0 0.0 0.00 0.00 0.00 86 1017.3
20260831132849 80 149 2.0 3.0 0.00 0.00 0.00 87 1017.5
20260831132344 80 158 1.0 3.0 0.00 0.00 0.00 86 1017.3
20260831131844 79 158 0.0 0.0 0.00 0.00 0.00 88 1017.3
20260831131340 78 146 0.0 0.0 0.00 0.00 0.00 90 1017.1
20260831130834 77 118 0.0 2.0 0.00 0.00 0.00 92 1017.1
20260831130330 76 142 2.0 2.0 0.00 0.00 0.00 93 1017.1
20260831125829 76 125 3.0 3.0 0.00 0.00 0.00 94 1017.1
20260831125325 75 142 3.0 5.0 0.00 0.00 0.00 94 1017.0
20260831124824 75 140 0.0 0.0 0.00 0.00 0.00 95 1016.9
20260831124321 75 143 0.0 0.0 0.00 0.00 0.00 95 1017.1
20260831123821 75 145 0.0 0.0 0.00 0.00 0.00 96 1016.9
20260831123319 75 144 0.0 0.0 0.00 0.00 0.00 96 1016.9
20260831122815 74 132 0.0 0.0 0.00 0.00 0.00 96 1016.8
20260831122310 75 145 0.0 0.0 0.00 0.00 0.00 95 1016.7
20260831121810 75 141 0.0 0.0 0.00 0.00 0.00 95 1016.7
20260831121307 75 147 0.0 0.0 0.00 0.00 0.00 95 1016.7
20260831120802 75 155 0.0 0.0 0.00 0.00 0.00 95 1016.6
20260831120256 75 154 0.0 0.0 0.00 0.00 0.00 94 1016.6
20260831115751 75 151 0.0 0.0 0.00 0.00 0.00 94 1016.8